STARLINK-32427, 61848

Orbit data source: Space-Track

STARLINK-32427, 61848 is a payload satellite owned by SpaceX/Seattle (US) in LEO that was launched on Thu, 07 Nov 2024 UTC via an FALCON 9 launch vehicle from the Air Force Eastern Test Range (AFETR). Payload-class satellites include a variety of spacecraft equipped with specific instruments for various scientific and technological missions. These include communications satellites like Starlink; space stations such as the ISS; scientific satellites like the Hubble; Earth observation satellites from companies like Planet Labs, Umbra, and HawkEye 360; GPS; miniature CubeSats for education and research; and military/defense satellites.

Loading next visibility...
Identifier
61848, 2024-202D
Orbit
LEO
Last TLE update
18 hours ago
Origin
Manufacturer
SpaceX/Seattle
Mission
Operational Commercial Communications
Bus & Motor
STARLINK V2M, Unknown motor
Mass
730 kg wet, ~700 kg dry
Launch date (UTC)
2024-11-07 (8 months ago)
Launch vehicle
FALCON 9
Launch site
Air Force Eastern Test Range (AFETR)
Object type
Payload
Rocket body
Debris
Shape & HBR
Box + 2 Pan, 29 m
Radar Cross Section
33.884 m², Large (>1 m²)

Expand to show TLE details & history

TLE from 18 hours ago
0 STARLINK-32427
1 61848U 24202D   25181.48263527  .00000091  00000-0  12595-4 0  9997
2 61848  43.0025 211.2745 0002186 290.7138  69.3479 15.28409852 36889
Epoch: 2025-06-30T11:34Z
TLE epoch observation values (Epoch: 2025-06-30T11:34:59.687Z)
Latitude
-0.00005°
Longitude
118.73395°
Altitude
479.813 km
Speed
7.628 km/s
True Right ascension
14h 05m 05s
True Declination
0° 00' 00"
Sunlit
Object was in daylight at epoch
Visualization orbit readout
Latitude
-42.33813°
Longitude
38.06532°
Altitude
492.13 km
Speed
7.62 km/s
Apparent Right ascension
07h 13m 32s
Apparent Declination
-43° 16' 43"
Sunlit
Object is in daylight
Visualization observer readout
Local Sidereal Time
17:41:05
Azimuth
251.405° W
Elevation
-72.449°
Doppler factor
1
Orbital elements
Apogee altitude
484.011 km
Perigee altitude
481.011 km
Semi-major axis
6,860.648 km
Eccentricity
0.00022
Inclination
43.0025°
RAAN
211.2745°
Arg. of periapsis
290.7138°
True anomaly
Unknown
Mean anomaly
69.3479°
Eccentric anomaly
Unknown
Mean motion
3.8194 °/min
Orbital period
94.26 mins
BSTAR
0.000012595
Loading maneuver chart data...
Loading SW <> Apogee altitude chart data...
Loading historical data...
Loading historical data...
Loading historical data...
Loading historical data...
Loading historical data...
Loading historical data...
Loading historical data...

STARLINK-32427 Visibility forecast

Observer location: undefined°, undefined°

Span
Click to sort rows by Start time (UTC) header in descending order
Start Az.
Max El. time (UTC)
Max El. Az.
Max El.
End time (UTC)
End Az.
6 mins2025-07-01 06:40:21.467Z259.607° W2025-07-01 06:43:21.467Z318.9° NNW43.766°2025-07-01 06:46:21.467Z69.435° E
5 mins2025-07-01 08:20:21.467Z292.681° NW2025-07-01 08:22:21.467Z344.712° N37.614°2025-07-01 08:25:21.467Z76.063° E
6 mins2025-07-01 09:59:21.467Z285.822° WNW2025-07-01 10:01:21.467Z262.798° W43.485°2025-07-01 10:05:21.467Z113.505° SE
5 mins2025-07-02 04:34:21.467Z195.186° SSW2025-07-02 04:36:21.467Z144.931° SSE26.115°2025-07-02 04:39:21.467Z88.002° E
|